一网星座-0213星 (ONEWEB-0213 )

导读

ONEWEB-0213是英国OneWeb低轨宽带星座中的一颗通信卫星,于2021年5月28日发射入轨,运行在约1200公里高度的近地轨道。卫星发射重量147.5公斤,配备Ku和Ka波段通信天线,设计寿命超过7年。作为OneWeb全球互联网星座组成部分,它为航空、海事、偏远地区提供低时延宽带接入服务,支撑全球无缝网络覆盖。

基本信息
目录编号:
48790
目录名称:
ONEWEB-0213
国际标识:
2021-045Z
轨道中心:
EARTH
卫星名称:
一网星座-0213星
卫星全名:
一网星座-0213星 (ONEWEB-0213 )
卫星状态:
在轨 (已飞行1932 天)
发射日期:
2021-05-28 UTC
国别 :
英国 (GB)
星等 :
--
该卫星已列入 空间交会检测服务 Space Conjunction Data Service (SCDS) ,当前飞行风险评估等级: 无高风险
轨道信息
数据来源 国际轨道数据 AOE轨道数据
星历时间 2026-09-11T06:47:16+0800
15小时前
查看轨道信息
2026-09-06T07:00:00+0800
5天前
查看轨道信息
半长轴 7579.908km 7579.895km
偏心率 0.0002214 0.0002285
轨道倾角 87.898° 87.898°
近地点辐角 80.271° 80.005°
升交点赤经 242.099° 243.093°
平近点角 279.867° 55.650°
近地点 1200.092km 1200.025km
远地点 1203.45km 1203.491km
周期 109.460分钟 109.460分钟
每日圈数 13.155485 13.155519
详细信息
平衡模式:
三轴稳定
覆盖范围:
全球
运营商:
一网卫星公司
运营商所在国:
英国
制造商(研发单位):
一网卫星公司
制造商所在国:
英国
使用方式:
暂无
卫星简介
OneWeb卫星网络由648颗重约125公斤的微型卫星组成,运行在1200公里的轨道上。 每颗卫星都能够提供至少每秒8千兆位的吞吐量,以使用其高吞吐量的Ku频段有效载荷为家庭和移动平台提供互联网接入。该卫星仍在工作。
2D轨道图
3D轨道图
轨道高度分析图
轨道倾角分析图
轨道综合分析图
查看轨道综合分析图
与全量物体交会距离演化趋势
与全量物体交会风险概率演化趋势